When you browse on this site, cookies collect data to enhance your experience and personalize the content and advertising you see.
Visit our Privacy Policy to learn more. By continuing to use the site, you agree to this use of cookies and data.
  • In Sweden
  • List of Countries
  • For 7 days
  • Water Temperature
  • Weather Map
  • Weather Widgets
  • user-avatar
    Login

    Hourly Weather Bhopal

    Today, 18 January, Saturday

    Time Temperature Precipitation Wind Pressure Humidity
    00:00 +13°C° 0 mm 2 mps 718 mmHg 71%
    01:00 +13°C° 0 mm 2 mps 717 mmHg 75%
    02:00 +12°C° 0 mm 3 mps 717 mmHg 78%
    03:00 +11°C° 0 mm 3 mps 717 mmHg 81%
    04:00 +11°C° 0 mm 3 mps 717 mmHg 83%
    05:00 +11°C° 0 mm 3 mps 717 mmHg 85%
    06:00 +11°C° 0 mm 3 mps 717 mmHg 84%
    07:00 +12°C° 0 mm 3 mps 718 mmHg 83%
    08:00 +13°C° 0 mm 4 mps 718 mmHg 82%
    09:00 +15°C° 0 mm 4 mps 719 mmHg 73%
    10:00 +18°C° 0 mm 3 mps 719 mmHg 64%
    11:00 +21°C° 0 mm 3 mps 719 mmHg 55%
    12:00 +23°C° 0 mm 2 mps 719 mmHg 50%
    13:00 +24°C° 0 mm 1 mps 718 mmHg 45%
    14:00 +23°C° 0 mm 0 mps 717 mmHg 39%
    15:00 +24°C° 0 mm 1 mps 717 mmHg 42%
    16:00 +23°C° 0 mm 1 mps 717 mmHg 44%
    17:00 +22°C° 0 mm 1 mps 716 mmHg 46%
    18:00 +19°C° 0 mm 2 mps 717 mmHg 48%
    19:00 +18°C° 0 mm 2 mps 717 mmHg 50%
    20:00 +17°C° 0 mm 2 mps 717 mmHg 52%
    21:00 +16°C° 0 mm 2 mps 717 mmHg 56%
    22:00 +14°C° 0 mm 3 mps 717 mmHg 59%
    23:00 +14°C° 0 mm 3 mps 717 mmHg 63%

    Tomorrow, 19 January, Sunday

    Time Temperature Precipitation Wind Pressure Humidity
    00:00 +13°C° 0 mm 3 mps 717 mmHg 66%
    01:00 +13°C° 0 mm 3 mps 717 mmHg 69%
    02:00 +12°C° 0 mm 4 mps 717 mmHg 72%
    03:00 +12°C° 0 mm 4 mps 717 mmHg 75%
    04:00 +11°C° 0 mm 4 mps 717 mmHg 78%
    05:00 +11°C° 0 mm 4 mps 717 mmHg 81%
    06:00 +12°C° 0 mm 4 mps 717 mmHg 78%
    07:00 +13°C° 0 mm 4 mps 718 mmHg 75%
    08:00 +13°C° 0 mm 4 mps 719 mmHg 72%
    09:00 +17°C° 0 mm 4 mps 719 mmHg 65%
    10:00 +19°C° 0 mm 4 mps 719 mmHg 58%
    11:00 +21°C° 0 mm 4 mps 719 mmHg 50%
    12:00 +22°C° 0 mm 4 mps 719 mmHg 47%
    13:00 +22°C° 0 mm 3 mps 718 mmHg 43%
    14:00 +24°C° 0 mm 3 mps 718 mmHg 39%
    15:00 +22°C° 0 mm 3 mps 717 mmHg 42%
    16:00 +21°C° 0 mm 3 mps 717 mmHg 46%
    17:00 +20°C° 0 mm 3 mps 717 mmHg 49%
    18:00 +18°C° 0 mm 3 mps 717 mmHg 51%
    19:00 +17°C° 0 mm 3 mps 717 mmHg 53%
    20:00 +16°C° 0 mm 3 mps 718 mmHg 55%
    21:00 +14°C° 0 mm 3 mps 718 mmHg 55%
    22:00 +13°C° 0 mm 3 mps 718 mmHg 55%
    23:00 +13°C° 0 mm 3 mps 717 mmHg 54%

    Day after tomorrow, 20 January, Monday

    Time Temperature Precipitation Wind Pressure Humidity
    00:00 +12°C° 0 mm 3 mps 717 mmHg 55%
    01:00 +12°C° 0 mm 3 mps 717 mmHg 56%
    02:00 +12°C° 0 mm 3 mps 717 mmHg 57%
    03:00 +11°C° 0 mm 3 mps 717 mmHg 58%
    04:00 +11°C° 0 mm 3 mps 717 mmHg 60%
    05:00 +11°C° 0 mm 3 mps 716 mmHg 61%
    06:00 +11°C° 0 mm 3 mps 717 mmHg 60%
    07:00 +12°C° 0 mm 3 mps 718 mmHg 59%
    08:00 +13°C° 0 mm 3 mps 719 mmHg 58%
    09:00 +16°C° 0 mm 3 mps 719 mmHg 53%
    10:00 +19°C° 0 mm 3 mps 719 mmHg 47%
    11:00 +21°C° 0 mm 4 mps 719 mmHg 42%
    12:00 +22°C° 0 mm 3 mps 718 mmHg 40%
    13:00 +24°C° 0 mm 2 mps 717 mmHg 38%
    14:00 +25°C° 0 mm 2 mps 717 mmHg 36%
    15:00 +24°C° 0 mm 1 mps 716 mmHg 39%
    16:00 +23°C° 0 mm 1 mps 716 mmHg 43%
    17:00 +23°C° 0 mm 1 mps 715 mmHg 46%
    18:00 +21°C° 0 mm 1 mps 716 mmHg 48%
    19:00 +19°C° 0 mm 2 mps 716 mmHg 50%
    20:00 +18°C° 0 mm 2 mps 717 mmHg 52%
    21:00 +17°C° 0 mm 3 mps 717 mmHg 53%
    22:00 +16°C° 0 mm 3 mps 717 mmHg 53%
    23:00 +16°C° 0 mm 3 mps 717 mmHg 54%

    21 January, Tuesday

    Time Temperature Precipitation Wind Pressure Humidity
    00:00 +14°C° 0 mm 3 mps 716 mmHg 54%
    01:00 +14°C° 0 mm 3 mps 716 mmHg 55%
    02:00 +14°C° 0 mm 3 mps 716 mmHg 55%
    03:00 +13°C° 0 mm 3 mps 716 mmHg 55%
    04:00 +13°C° 0 mm 3 mps 715 mmHg 54%
    05:00 +13°C° 0 mm 3 mps 715 mmHg 53%
    06:00 +13°C° 0 mm 3 mps 716 mmHg 52%
    07:00 +14°C° 0 mm 3 mps 717 mmHg 51%
    08:00 +16°C° 0 mm 3 mps 717 mmHg 50%
    09:00 +19°C° 0 mm 3 mps 718 mmHg 49%
    10:00 +22°C° 0 mm 3 mps 718 mmHg 48%
    11:00 +26°C° 0 mm 3 mps 718 mmHg 47%
    12:00 +27°C° 0 mm 3 mps 718 mmHg 43%
    13:00 +28°C° 0 mm 3 mps 717 mmHg 39%
    14:00 +29°C° 0 mm 3 mps 716 mmHg 34%
    15:00 +28°C° 0 mm 2 mps 716 mmHg 37%
    16:00 +27°C° 0 mm 2 mps 716 mmHg 40%
    17:00 +26°C° 0 mm 2 mps 715 mmHg 43%
    18:00 +24°C° 0 mm 2 mps 716 mmHg 43%
    19:00 +23°C° 0 mm 1 mps 717 mmHg 43%
    20:00 +22°C° 0 mm 1 mps 717 mmHg 44%
    21:00 +20°C° 0 mm 2 mps 717 mmHg 45%
    22:00 +19°C° 0 mm 2 mps 717 mmHg 46%
    23:00 +18°C° 0 mm 2 mps 717 mmHg 47%

    22 January, Wednesday

    Time Temperature Precipitation Wind Pressure Humidity
    00:00 +17°C° 0 mm 2 mps 717 mmHg 54%
    01:00 +16°C° 0 mm 2 mps 717 mmHg 61%
    02:00 +15°C° 0 mm 2 mps 716 mmHg 68%
    03:00 +15°C° 0 mm 2 mps 717 mmHg 71%
    04:00 +14°C° 0 mm 2 mps 717 mmHg 73%
    05:00 +14°C° 0 mm 2 mps 717 mmHg 76%
    06:00 +15°C° 0 mm 2 mps 718 mmHg 74%
    07:00 +15°C° 0 mm 2 mps 718 mmHg 73%
    08:00 +16°C° 0 mm 2 mps 719 mmHg 71%
    09:00 +18°C° 0 mm 2 mps 719 mmHg 63%
    10:00 +21°C° 0 mm 3 mps 720 mmHg 54%
    11:00 +25°C° 0 mm 3 mps 720 mmHg 45%
    12:00 +25°C° 0 mm 3 mps 719 mmHg 40%
    13:00 +26°C° 0 mm 3 mps 719 mmHg 35%
    14:00 +27°C° 0 mm 3 mps 718 mmHg 30%
    15:00 +26°C° 0 mm 3 mps 718 mmHg 34%
    16:00 +25°C° 0 mm 2 mps 718 mmHg 37%
    17:00 +24°C° 0 mm 2 mps 717 mmHg 41%
    18:00 +21°C° 0 mm 3 mps 718 mmHg 45%
    19:00 +19°C° 0 mm 3 mps 718 mmHg 49%
    20:00 +17°C° 0 mm 3 mps 719 mmHg 53%
    21:00 +17°C° 0 mm 3 mps 719 mmHg 56%
    22:00 +16°C° 0 mm 3 mps 719 mmHg 60%
    23:00 +14°C° 0 mm 4 mps 719 mmHg 64%

    23 January, Thursday

    Time Temperature Precipitation Wind Pressure Humidity
    00:00 +14°C° 0 mm 3 mps 718 mmHg 68%
    01:00 +13°C° 0 mm 3 mps 718 mmHg 73%
    02:00 +12°C° 0 mm 3 mps 718 mmHg 77%
    03:00 +12°C° 0 mm 3 mps 718 mmHg 78%
    04:00 +12°C° 0 mm 3 mps 718 mmHg 80%
    05:00 +11°C° 0 mm 3 mps 718 mmHg 81%
    06:00 +12°C° 0 mm 4 mps 718 mmHg 77%
    07:00 +13°C° 0 mm 4 mps 719 mmHg 74%
    08:00 +13°C° 0 mm 4 mps 720 mmHg 70%
    09:00 +17°C° 0 mm 4 mps 720 mmHg 62%
    10:00 +19°C° 0 mm 4 mps 720 mmHg 53%
    11:00 +21°C° 0 mm 4 mps 720 mmHg 45%
    12:00 +22°C° 0 mm 3 mps 720 mmHg 40%
    13:00 +24°C° 0 mm 3 mps 719 mmHg 36%
    14:00 +25°C° 0 mm 3 mps 718 mmHg 31%
    15:00 +24°C° 0 mm 3 mps 718 mmHg 34%
    16:00 +23°C° 0 mm 2 mps 718 mmHg 36%
    17:00 +21°C° 0 mm 2 mps 717 mmHg 39%
    18:00 +19°C° 0 mm 2 mps 718 mmHg 42%
    19:00 +17°C° 0 mm 2 mps 718 mmHg 44%
    20:00 +15°C° 0 mm 2 mps 718 mmHg 47%
    21:00 +15°C° 0 mm 2 mps 719 mmHg 49%
    22:00 +14°C° 0 mm 2 mps 719 mmHg 50%
    23:00 +14°C° 0 mm 2 mps 719 mmHg 52%
    Show more